Torna al catalogo

DELTA 1 DEB

AttivoSSO
NORAD 9726·DEBRIS·🇺🇸 United States

Lanciato Nov 6, 1973 da Vandenberg Space Force Base

Loading…

Prossimi Passaggi (prossime 24 ore)

TLE

AggiornatoSource: Space-Track

Epoca: Sep 14, 2026, 12:15 UTC

1 09726U 73086GC  26257.51080486 -.00000005  00000-0  36262-3 0  9990
2 09726 102.5887 274.4138 0079388 199.9191 318.1184 12.26680102292120

Traccia DELTA 1 DEB in tempo reale con AllMySat

Download on the App Store